Weather in Milicz

Poland     51°31′37″N   17°16′43″E
temp.,
°C
wind,
m/s
gust,
m/s
humid.,
%
clouds,
%
prec.,
mm/h
press.,
hPa
HPBL,
m
20 september, mon
mon2023:00+11nnw2568100 0.0 1018331
02:00+10nnw2580100 0.0 1018337
05:00+10n2486100 0.1 1018264
08:00+10n2586100 0.1 1019331
11:00+14n344919 0.1 10201359
14:00+14nnw454847 0.1 10201583
17:00+13nne356263 0.0 10211115
20:00+9ene25692 0.0 1023148
21 september, tue
tue2123:00+8ese11715 0.0 102410
02:00+7sw11765 0.0 102510
05:00+7sw237798 0.0 102543
08:00+9w1370100 0.0 1026127
11:00+11wnw2364100 0.0 1027274
14:00+15wnw344732 0.0 10261319
17:00+14wnw3547100 0.0 10261158
20:00+12wnw2460100 0.0 1026105
22 september, wed
wed2223:00+11wsw2761100 0.0 1026220
02:00+10nw4875100 0.0 1025486
05:00+10nw2678100 0.0 1025486
08:00+10wnw3781100 0.1 1025502
11:00+10w2686100 0.6 1025434
14:00+10wnw2685100 1.1 1024565
17:00+14nw3573100 0.2 1022758
20:00+11w2589100 0.6 1022145
23 september, thu
thu2323:00+10w389391 0.1 1022214
02:00+9w369572 0.1 1020168
05:00+8wsw36965 0.0 1019132
08:00+10wsw41091100 0.0 1018368
11:00+15w5963100 0.0 1016773
14:00+18w5951100 0.0 10131305
17:00+18w61252100 0.0 10101321
20:00+16w71456100 0.1 10091423
24 september, fri
fri2423:00+15w71567100 0.0 10081424
02:00+14w81572100 0.1 10071308
05:00+14w81672100 0.0 10061355
08:00+14w81570100 0.0 10061421
11:00+14w71473100 0.0 10071430
14:00+15w61374100 0.1 10081435
17:00+15w51477100 0.2 10081481
20:00+15w51280100 0.6 10081105